This is the latest recevied weather packets stored in our database for station/object DC0PP-10. If no packets are shown the sender has not sent any weather packets the latest 1 day(s).
| Time | Temp. | Humidity | Pressure | Rain* | Wind** | Luminosity | Snow |
|---|---|---|---|---|---|---|---|
| 1788621690 | 26.11° C | 51% | 1024.3 hPa | - | - | - | - |
| 1788620790 | 26.11° C | 51% | 1024.3 hPa | - | - | - | - |
| 1788619889 | 26.11° C | 50% | 1024.2 hPa | - | - | - | - |
| 1788618989 | 26.11° C | 49% | 1024.2 hPa | - | - | - | - |
| 1788618089 | 26.11° C | 53% | 1024.3 hPa | - | - | - | - |
| 1788617189 | 26.11° C | 48% | 1024.4 hPa | - | - | - | - |
| 1788616289 | 26.11° C | 53% | 1024.4 hPa | - | - | - | - |
| 1788615389 | 26.11° C | 55% | 1024.5 hPa | - | - | - | - |
| 1788614488 | 25.56° C | 56% | 1024.5 hPa | - | - | - | - |
| 1788613588 | 25.56° C | 51% | 1024.5 hPa | - | - | - | - |
| 1788612692 | 25.56° C | 57% | 1024.7 hPa | - | - | - | - |
| 1788611792 | 25.56° C | 56% | 1024.7 hPa | - | - | - | - |
| 1788610891 | 25.56° C | 56% | 1024.6 hPa | - | - | - | - |
| 1788609991 | 25.56° C | 57% | 1024.7 hPa | - | - | - | - |
| 1788609091 | 25.56° C | 57% | 1024.6 hPa | - | - | - | - |
| 1788608191 | 25.56° C | 57% | 1024.7 hPa | - | - | - | - |
| 1788607291 | 25° C | 59% | 1024.7 hPa | - | - | - | - |
| 1788606391 | 25° C | 60% | 1024.7 hPa | - | - | - | - |
| 1788605490 | 25° C | 60% | 1024.8 hPa | - | - | - | - |
| 1788604590 | 25° C | 60% | 1024.8 hPa | - | - | - | - |
| 1788603690 | 25° C | 61% | 1024.7 hPa | - | - | - | - |
| 1788602790 | 25° C | 62% | 1024.9 hPa | - | - | - | - |
| 1788601890 | 25° C | 64% | 1024.8 hPa | - | - | - | - |
| 1788600990 | 25° C | 60% | 1024.7 hPa | - | - | - | - |
| 1788600090 | 25° C | 61% | 1024.6 hPa | - | - | - | - |
* Rain since midnight (hover to see other rain measurements)
** Current wind speed in m/s (hover to see current wind gust speed)